Weather History for KMPZ - February, 2013

Change the Weather History Date:

Saturday, February 16, 2013

  Actual Average Record
Temperature  
Mean Temperature 26 °F -  
Max Temperature 35 °F 35 °F 61 °F (1981)
Min Temperature 16 °F 16 °F -17 °F (1958)
Degree Days  
Heating Degree Days 40    
Moisture  
Dew Point 11 °F    
Average Humidity 56    
Maximum Humidity 71    
Minimum Humidity 36    
Precipitation  
Precipitation 0.00 in - - ()
Sea Level Pressure  
Sea Level Pressure 30.20 in    
Wind  
Wind Speed 9 mph (NW)    
Max Wind Speed 16 mph    
Max Gust Speed 20 mph    
Visibility 10 miles    
Events      
Averages and records for this station are not official NWS values.
T = Trace of Precipitation, MM = Missing Value Source: NWS Daily Summary

Daily Weather History Graph

Daily Weather History Graph

Search for Another Location

Airport or City:

Trip Planner

Search our weather history database for the weather conditions in past years. The results will help you decide how hot, cold, wet, or windy it might be!

Date:

Astronomy

Feb. 16, 2013 Rise Set
Actual Time 6:58 AM CST 5:42 PM CST
Civil Twilight 6:30 AM CST 6:10 PM CST
Nautical Twilight 5:58 AM CST 6:42 PM CST
Astronomical Twilight 5:26 AM CST 7:14 PM CST
Moon 10:08 AM CST (2/16) No Moon Set
Length of Visible Light 11h 39m
Length of Day
10h 43m
Waxing Crescent, 39% of the Moon is Illuminated
Feb 16
Waxing Crescent
Feb 17
First Quarter
Feb 25
Full
Mar 4
Last Quarter
Mar 11
New

Hourly Weather History & Observations

Time (CST) Temp. Windchill Dew Point Humidity Pressure Visibility Wind Dir Wind Speed Gust Speed Precip Events Conditions
12:15 AM 24.4 °F 11.5 °F 11.7 °F 58% 30.26 in 10.0 mi NNW 16.1 mph - N/A   Clear
12:35 AM 23.9 °F 13.5 °F 10.6 °F 57% 30.26 in 10.0 mi NNW 10.4 mph - N/A   Clear
12:55 AM 23.5 °F 12.4 °F 9.5 °F 55% 30.26 in 10.0 mi NNW 11.5 mph 19.6 mph N/A   Clear
1:15 AM 23.0 °F 11.1 °F 8.6 °F 54% 30.26 in 10.0 mi NNW 12.7 mph - N/A   Clear
1:35 AM 22.8 °F 12.2 °F 8.6 °F 55% 30.26 in 10.0 mi NNW 10.4 mph - N/A   Clear
1:55 AM 22.5 °F 11.1 °F 8.6 °F 55% 30.26 in 10.0 mi NNW 11.5 mph - N/A   Clear
2:15 AM 22.1 °F 10.6 °F 8.6 °F 56% 30.26 in 10.0 mi NNW 11.5 mph - N/A   Clear
2:35 AM 21.7 °F 10.2 °F 8.8 °F 57% 30.26 in 10.0 mi NNW 11.5 mph - N/A   Clear
2:55 AM 21.2 °F 10.9 °F 8.6 °F 58% 30.25 in 10.0 mi NNW 9.2 mph - N/A   Clear
3:15 AM 21.0 °F 9.9 °F 8.6 °F 59% 30.25 in 10.0 mi NNW 10.4 mph - N/A   Clear
3:35 AM 20.7 °F 11.0 °F 8.4 °F 59% 30.25 in 10.0 mi NNW 8.1 mph - N/A   Clear
3:55 AM 20.3 °F 10.6 °F 6.8 °F 56% 30.24 in 10.0 mi NNW 8.1 mph - N/A   Clear
4:15 AM 19.8 °F 14.7 °F 7.0 °F 58% 30.24 in 10.0 mi NW 3.5 mph - N/A   Clear
4:35 AM 19.4 °F 12.8 °F 8.6 °F 63% 30.25 in 10.0 mi WNW 4.6 mph - N/A   Clear
4:55 AM 19.4 °F 14.3 °F 8.6 °F 63% 30.25 in 10.0 mi WNW 3.5 mph - N/A   Clear
5:15 AM 18.9 °F 13.7 °F 8.8 °F 65% 30.24 in 10.0 mi WNW 3.5 mph - N/A   Clear
5:35 AM 18.5 °F 13.3 °F 9.1 °F 67% 30.24 in 10.0 mi West 3.5 mph - N/A   Clear
5:55 AM 18.1 °F 11.3 °F 9.0 °F 67% 30.24 in 10.0 mi West 4.6 mph - N/A   Clear
6:15 AM 17.8 °F 12.5 °F 8.4 °F 67% 30.23 in 10.0 mi West 3.5 mph - N/A   Clear
6:35 AM 17.6 °F 10.7 °F 8.4 °F 67% 30.24 in 10.0 mi West 4.6 mph - N/A   Clear
6:55 AM 16.9 °F 9.8 °F 8.4 °F 69% 30.24 in 10.0 mi WSW 4.6 mph - N/A   Clear
7:15 AM 17.6 °F 12.3 °F 8.6 °F 68% 30.24 in 10.0 mi West 3.5 mph - N/A   Clear
7:35 AM 18.5 °F 11.7 °F 9.3 °F 67% 30.25 in 10.0 mi West 4.6 mph - N/A   Clear
7:55 AM 19.6 °F 11.7 °F 10.6 °F 68% 30.25 in 10.0 mi West 5.8 mph - N/A   Clear
8:15 AM 20.5 °F 10.8 °F 11.1 °F 67% 30.25 in 10.0 mi WNW 8.1 mph - N/A   Clear
8:35 AM 21.7 °F 11.5 °F 10.6 °F 62% 30.25 in 10.0 mi WNW 9.2 mph - N/A   Clear
8:55 AM 22.6 °F 13.4 °F 9.9 °F 58% 30.25 in 10.0 mi WNW 8.1 mph - N/A   Clear
9:15 AM 23.5 °F 13.0 °F 8.4 °F 53% 30.25 in 10.0 mi WNW 10.4 mph - N/A   Clear
9:35 AM 24.8 °F 16.1 °F 8.4 °F 50% 30.25 in 10.0 mi WNW 8.1 mph - N/A   Clear
12:15 PM 31.6 °F 23.7 °F 10.4 °F 41% 30.20 in 10.0 mi West 9.2 mph - N/A   Clear
12:35 PM 31.6 °F 24.4 °F 10.9 °F 42% 30.19 in 10.0 mi WNW 8.1 mph - N/A   Scattered Clouds
12:55 PM 32.0 °F 23.6 °F 10.8 °F 41% 30.18 in 10.0 mi WNW 10.4 mph - N/A   Scattered Clouds
1:15 PM 32.5 °F 24.2 °F 10.9 °F 41% 30.18 in 10.0 mi WNW 10.4 mph - N/A   Mostly Cloudy
1:35 PM 34.0 °F 27.2 °F 11.3 °F 39% 30.17 in 10.0 mi West 8.1 mph - N/A   Scattered Clouds
1:55 PM 34.3 °F 25.9 °F 11.1 °F 38% 30.16 in 10.0 mi West 11.5 mph - N/A   Scattered Clouds
2:15 PM 33.3 °F 27.1 °F 10.9 °F 40% 30.16 in 10.0 mi WNW 6.9 mph - N/A   Scattered Clouds
2:35 PM 34.9 °F 29.0 °F 10.8 °F 37% 30.16 in 10.0 mi NW 6.9 mph - N/A   Clear
2:55 PM 35.6 °F 29.2 °F 10.6 °F 36% 30.16 in 10.0 mi WNW 8.1 mph - N/A   Mostly Cloudy
3:15 PM 33.6 °F 27.5 °F 10.8 °F 39% 30.15 in 10.0 mi NW 6.9 mph - N/A   Scattered Clouds
3:35 PM 34.5 °F 27.9 °F 10.6 °F 37% 30.16 in 10.0 mi WNW 8.1 mph - N/A   Scattered Clouds
3:55 PM 34.2 °F 28.2 °F 11.3 °F 39% 30.16 in 10.0 mi WNW 6.9 mph - N/A   Scattered Clouds
4:15 PM 34.7 °F 30.6 °F 10.0 °F 36% 30.15 in 10.0 mi NW 4.6 mph - N/A   Scattered Clouds
4:35 PM 34.5 °F 27.9 °F 10.2 °F 37% 30.15 in 10.0 mi West 8.1 mph - N/A   Clear
4:55 PM 34.2 °F 29.0 °F 10.9 °F 38% 30.15 in 10.0 mi NW 5.8 mph - N/A   Clear
5:15 PM 33.4 °F 29.1 °F 11.1 °F 40% 30.15 in 10.0 mi NW 4.6 mph - N/A   Clear
5:35 PM 32.7 °F - 11.7 °F 42% 30.15 in 10.0 mi Calm Calm - N/A   Clear
5:55 PM 31.6 °F 28.3 °F 13.6 °F 47% 30.15 in 10.0 mi North 3.5 mph - N/A   Clear
6:15 PM 31.1 °F 27.7 °F 14.5 °F 50% 30.16 in 10.0 mi North 3.5 mph - N/A   Clear
6:35 PM 30.9 °F - 15.4 °F 53% 30.16 in 10.0 mi Calm Calm - N/A   Clear
6:55 PM 29.3 °F 24.3 °F 16.7 °F 59% 30.17 in 10.0 mi NE 4.6 mph - N/A   Clear
7:15 PM 27.7 °F 21.3 °F 17.6 °F 66% 30.17 in 10.0 mi NE 5.8 mph - N/A   Clear
7:35 PM 26.6 °F 20.0 °F 17.4 °F 68% 30.17 in 10.0 mi NE 5.8 mph - N/A   Clear
7:55 PM 26.6 °F 19.1 °F 17.1 °F 67% 30.16 in 10.0 mi ENE 6.9 mph - N/A   Clear
8:15 PM 26.6 °F 20.0 °F 17.6 °F 69% 30.16 in 10.0 mi ENE 5.8 mph - N/A   Clear
8:35 PM 26.2 °F 19.6 °F 16.7 °F 67% 30.17 in 10.0 mi ENE 5.8 mph - N/A   Clear
8:55 PM 26.1 °F 19.4 °F 17.1 °F 69% 30.17 in 10.0 mi East 5.8 mph - N/A   Clear
9:15 PM 25.5 °F 17.8 °F 16.7 °F 69% 30.17 in 10.0 mi ENE 6.9 mph - N/A   Clear
9:35 PM 24.8 °F 17.9 °F 16.2 °F 70% 30.17 in 10.0 mi East 5.8 mph - N/A   Clear
9:55 PM 24.3 °F 17.3 °F 15.8 °F 70% 30.16 in 10.0 mi East 5.8 mph - N/A   Clear
10:15 PM 24.4 °F 18.6 °F 16.0 °F 70% 30.16 in 10.0 mi East 4.6 mph - N/A   Clear
10:35 PM 23.5 °F 16.4 °F 15.1 °F 70% 30.15 in 10.0 mi ESE 5.8 mph - N/A   Clear
10:55 PM 23.0 °F 17.0 °F 14.5 °F 70% 30.15 in 10.0 mi ESE 4.6 mph - N/A   Clear
11:15 PM 23.0 °F 17.0 °F 14.9 °F 71% 30.15 in 10.0 mi East 4.6 mph - N/A   Clear
11:35 PM 23.0 °F 14.7 °F 14.5 °F 70% 30.15 in 10.0 mi East 6.9 mph - N/A   Clear
11:55 PM 23.4 °F 16.2 °F 14.9 °F 70% 30.15 in 10.0 mi East 5.8 mph - N/A   Clear